| time (UTC) | temp F | wind direction | speed MPH | gust MPH | rain 1hr in | rain 24hr in | rain mn in | humidity % | barometer mb |
| 20260504210014 | 68 | 282 | 5.0 | 13.0 | 0.00 | 0.00 | 0.00 | 27 | 1006.9 |
| 20260504205517 | 68 | 243 | 6.0 | 15.0 | 0.00 | 0.00 | 0.00 | 27 | 1007.0 |
| 20260504205013 | 69 | 293 | 10.0 | 16.0 | 0.00 | 0.00 | 0.00 | 27 | 1006.9 |
| 20260504204517 | 69 | 273 | 8.0 | 16.0 | 0.00 | 0.00 | 0.00 | 27 | 1007.0 |
| 20260504204013 | 69 | 259 | 6.0 | 11.0 | 0.00 | 0.00 | 0.00 | 29 | 1007.0 |
| 20260504203513 | 69 | 283 | 5.0 | 14.0 | 0.00 | 0.00 | 0.00 | 28 | 1007.0 |
| 20260504203016 | 69 | 271 | 9.0 | 14.0 | 0.00 | 0.00 | 0.00 | 28 | 1007.0 |
| 20260504202514 | 70 | 191 | 6.0 | 12.0 | 0.00 | 0.00 | 0.00 | 29 | 1007.0 |
| 20260504202013 | 71 | 169 | 2.0 | 7.0 | 0.00 | 0.00 | 0.00 | 30 | 1007.0 |
| 20260504201511 | 70 | 243 | 0.0 | 7.0 | 0.00 | 0.00 | 0.00 | 28 | 1007.0 |
| 20260504201012 | 70 | 234 | 3.0 | 7.0 | 0.00 | 0.00 | 0.00 | 29 | 1007.0 |
| 20260504200511 | 70 | 167 | 3.0 | 6.0 | 0.00 | 0.00 | 0.00 | 28 | 1007.1 |
| 20260504200010 | 70 | 124 | 2.0 | 5.0 | 0.00 | 0.00 | 0.00 | 28 | 1007.1 |
| 20260504195509 | 70 | 193 | 2.0 | 5.0 | 0.00 | 0.00 | 0.00 | 28 | 1007.1 |
| 20260504195009 | 70 | 157 | 2.0 | 6.0 | 0.00 | 0.00 | 0.00 | 28 | 1007.2 |
| 20260504194509 | 70 | 252 | 0.0 | 4.0 | 0.00 | 0.00 | 0.00 | 28 | 1007.1 |
| 20260504194008 | 70 | 149 | 0.0 | 6.0 | 0.00 | 0.00 | 0.00 | 29 | 1007.2 |
| 20260504193508 | 71 | 137 | 3.0 | 6.0 | 0.00 | 0.00 | 0.00 | 27 | 1007.3 |
| 20260504193007 | 71 | 153 | 0.0 | 5.0 | 0.00 | 0.00 | 0.00 | 28 | 1007.3 |
| 20260504192507 | 70 | 111 | 3.0 | 6.0 | 0.00 | 0.00 | 0.00 | 28 | 1007.3 |
| 20260504192007 | 71 | 126 | 2.0 | 7.0 | 0.00 | 0.00 | 0.00 | 28 | 1007.3 |
| 20260504191510 | 71 | 70 | 2.0 | 10.0 | 0.00 | 0.00 | 0.00 | 27 | 1007.3 |
| 20260504191006 | 71 | 142 | 5.0 | 10.0 | 0.00 | 0.00 | 0.00 | 27 | 1007.5 |
| 20260504190506 | 72 | 148 | 3.0 | 10.0 | 0.00 | 0.00 | 0.00 | 27 | 1007.5 |
| 20260504190006 | 72 | 125 | 3.0 | 8.0 | 0.00 | 0.00 | 0.00 | 27 | 1007.6 |
| 20260504185504 | 72 | 136 | 5.0 | 9.0 | 0.00 | 0.00 | 0.00 | 26 | 1007.6 |
| 20260504185003 | 72 | 93 | 5.0 | 9.0 | 0.00 | 0.00 | 0.00 | 25 | 1007.7 |
| 20260504184503 | 72 | 114 | 4.0 | 12.0 | 0.00 | 0.00 | 0.00 | 27 | 1007.8 |
| 20260504184103 | 71 | 102 | 2.0 | 12.0 | 0.00 | 0.00 | 0.00 | 29 | 1007.9 |
| 20260504183502 | 71 | 148 | 5.0 | 8.0 | 0.00 | 0.00 | 0.00 | 27 | 1007.8 |
| 20260504183105 | 71 | 171 | 4.0 | 12.0 | 0.00 | 0.00 | 0.00 | 29 | 1007.9 |
| 20260504182559 | 70 | 170 | 5.0 | 12.0 | 0.00 | 0.00 | 0.00 | 29 | 1008.0 |
| 20260504182058 | 70 | 116 | 7.0 | 11.0 | 0.00 | 0.00 | 0.00 | 29 | 1008.1 |
| 20260504181604 | 70 | 128 | 4.0 | 12.0 | 0.00 | 0.00 | 0.00 | 29 | 1008.2 |
| 20260504181057 | 71 | 129 | 6.0 | 12.0 | 0.00 | 0.00 | 0.00 | 29 | 1008.2 |
| 20260504180557 | 70 | 146 | 5.0 | 14.0 | 0.00 | 0.00 | 0.00 | 30 | 1008.3 |
| 20260504180057 | 70 | 173 | 6.0 | 14.0 | 0.00 | 0.00 | 0.00 | 30 | 1008.3 |
| 20260504175555 | 70 | 139 | 8.0 | 15.0 | 0.00 | 0.00 | 0.00 | 30 | 1008.3 |
| 20260504175054 | 70 | 140 | 5.0 | 15.0 | 0.00 | 0.00 | 0.00 | 30 | 1008.4 |
| 20260504174554 | 70 | 126 | 8.0 | 15.0 | 0.00 | 0.00 | 0.00 | 30 | 1008.4 |
| 20260504174053 | 69 | 153 | 6.0 | 15.0 | 0.00 | 0.00 | 0.00 | 31 | 1008.5 |
| 20260504173552 | 69 | 117 | 6.0 | 16.0 | 0.00 | 0.00 | 0.00 | 31 | 1008.6 |
| 20260504173057 | 69 | 160 | 8.0 | 17.0 | 0.00 | 0.00 | 0.00 | 31 | 1008.6 |
| 20260504172550 | 68 | 183 | 7.0 | 15.0 | 0.00 | 0.00 | 0.00 | 31 | 1008.6 |
| 20260504172051 | 68 | 140 | 8.0 | 15.0 | 0.00 | 0.00 | 0.00 | 32 | 1008.8 |
| 20260504171550 | 68 | 131 | 6.0 | 17.0 | 0.00 | 0.00 | 0.00 | 31 | 1008.8 |
| 20260504171050 | 69 | 162 | 8.0 | 17.0 | 0.00 | 0.00 | 0.00 | 31 | 1008.8 |
| 20260504170547 | 68 | 111 | 7.0 | 17.0 | 0.00 | 0.00 | 0.00 | 33 | 1008.9 |
| 20260504151031 | 63 | 99 | 8.0 | 14.0 | 0.00 | 0.00 | 0.00 | 41 | 1009.6 |
| 20260504150533 | 63 | 148 | 7.0 | 12.0 | 0.00 | 0.00 | 0.00 | 42 | 1009.7 |
| 20260504141023 | 61 | 181 | 3.0 | 9.0 | 0.00 | 0.00 | 0.00 | 44 | 1009.9 |
| 20260504140522 | 60 | 229 | 3.0 | 9.0 | 0.00 | 0.00 | 0.00 | 46 | 1010.0 |
| 20260504130520 | 57 | 163 | 2.0 | 7.0 | 0.00 | 0.00 | 0.00 | 50 | 1010.0 |
| 20260504110512 | 59 | 139 | 8.0 | 15.0 | 0.00 | 0.00 | 0.00 | 43 | 1009.9 |
| 20260504100508 | 61 | 174 | 8.0 | 18.0 | 0.00 | 0.00 | 0.00 | 36 | 1009.8 |
| 20260504081557 | 58 | 139 | 3.0 | 7.0 | 0.00 | 0.00 | 0.00 | 31 | 1009.9 |
| 20260504081100 | 58 | 139 | 3.0 | 8.0 | 0.00 | 0.00 | 0.00 | 31 | 1010.0 |
| 20260504080557 | 58 | 172 | 3.0 | 13.0 | 0.00 | 0.00 | 0.00 | 31 | 1010.0 |
| 20260504050533 | 60 | 235 | 1.0 | 3.0 | 0.00 | 0.00 | 0.00 | 29 | 1010.2 |
| 20260504045530 | 60 | 250 | 1.0 | 5.0 | 0.00 | 0.00 | 0.00 | 29 | 1010.3 |
| 20260504045030 | 61 | 243 | 1.0 | 4.0 | 0.00 | 0.00 | 0.00 | 29 | 1010.3 |
| 20260504044530 | 61 | 259 | 2.0 | 4.0 | 0.00 | 0.00 | 0.00 | 28 | 1010.3 |
| 20260504044031 | 61 | 275 | 2.0 | 4.0 | 0.00 | 0.00 | 0.00 | 28 | 1010.3 |
| 20260504043531 | 61 | 252 | 2.0 | 4.0 | 0.00 | 0.00 | 0.00 | 28 | 1010.3 |
| 20260504043038 | 61 | 268 | 2.0 | 4.0 | 0.00 | 0.00 | 0.00 | 28 | 1010.4 |
| 20260504042530 | 61 | 243 | 2.0 | 4.0 | 0.00 | 0.00 | 0.00 | 27 | 1010.5 |
| 20260504042028 | 62 | 240 | 1.0 | 4.0 | 0.00 | 0.00 | 0.00 | 27 | 1010.4 |
| 20260504041529 | 62 | 253 | 1.0 | 3.0 | 0.00 | 0.00 | 0.00 | 27 | 1010.4 |
| 20260504041028 | 62 | 248 | 1.0 | 3.0 | 0.00 | 0.00 | 0.00 | 26 | 1010.4 |
| 20260504040529 | 62 | 242 | 1.0 | 4.0 | 0.00 | 0.00 | 0.00 | 26 | 1010.4 |
| 20260504040029 | 62 | 270 | 2.0 | 4.0 | 0.00 | 0.00 | 0.00 | 26 | 1010.4 |
| 20260504035528 | 62 | 270 | 2.0 | 4.0 | 0.00 | 0.00 | 0.00 | 26 | 1010.4 |
| 20260504035027 | 63 | 290 | 1.0 | 5.0 | 0.00 | 0.00 | 0.00 | 26 | 1010.4 |
| 20260504034528 | 63 | 241 | 2.0 | 5.0 | 0.00 | 0.00 | 0.00 | 26 | 1010.4 |
| 20260504034027 | 63 | 270 | 2.0 | 5.0 | 0.00 | 0.00 | 0.00 | 26 | 1010.3 |
| 20260504033527 | 63 | 275 | 2.0 | 4.0 | 0.00 | 0.00 | 0.00 | 26 | 1010.2 |
| 20260504033027 | 63 | 255 | 2.0 | 4.0 | 0.00 | 0.00 | 0.00 | 25 | 1010.3 |
| 20260504032527 | 64 | 276 | 2.0 | 4.0 | 0.00 | 0.00 | 0.00 | 25 | 1010.3 |
| 20260504032027 | 64 | 250 | 1.0 | 3.0 | 0.00 | 0.00 | 0.00 | 25 | 1010.2 |
| 20260504031529 | 64 | 282 | 2.0 | 3.0 | 0.00 | 0.00 | 0.00 | 25 | 1010.3 |
| 20260504031026 | 64 | 262 | 1.0 | 3.0 | 0.00 | 0.00 | 0.00 | 25 | 1010.3 |
| 20260504030526 | 64 | 270 | 1.0 | 3.0 | 0.00 | 0.00 | 0.00 | 25 | 1010.4 |
| 20260504030027 | 65 | 274 | 1.0 | 3.0 | 0.00 | 0.00 | 0.00 | 25 | 1010.4 |
| 20260504025526 | 65 | 264 | 1.0 | 4.0 | 0.00 | 0.00 | 0.00 | 24 | 1010.3 |
| 20260504025027 | 66 | 278 | 1.0 | 4.0 | 0.00 | 0.00 | 0.00 | 24 | 1010.3 |
| 20260504024525 | 66 | 279 | 0.0 | 3.0 | 0.00 | 0.00 | 0.00 | 24 | 1010.3 |
| 20260504024025 | 66 | 281 | 1.0 | 3.0 | 0.00 | 0.00 | 0.00 | 23 | 1010.2 |
| 20260504023526 | 66 | 281 | 1.0 | 4.0 | 0.00 | 0.00 | 0.00 | 23 | 1010.2 |
| 20260504023026 | 67 | 297 | 2.0 | 4.0 | 0.00 | 0.00 | 0.00 | 23 | 1010.2 |
| 20260504022526 | 67 | 302 | 1.0 | 5.0 | 0.00 | 0.00 | 0.00 | 23 | 1010.2 |
| 20260504022025 | 68 | 274 | 3.0 | 5.0 | 0.00 | 0.00 | 0.00 | 22 | 1010.3 |
| 20260504021525 | 68 | 297 | 1.0 | 3.0 | 0.00 | 0.00 | 0.00 | 21 | 1010.2 |
| 20260504021025 | 68 | 283 | 1.0 | 3.0 | 0.00 | 0.00 | 0.00 | 21 | 1010.3 |
| 20260504020525 | 69 | 290 | 1.0 | 4.0 | 0.00 | 0.00 | 0.00 | 20 | 1010.3 |
| 20260504020025 | 69 | 318 | 0.0 | 4.0 | 0.00 | 0.00 | 0.00 | 20 | 1010.3 |
| 20260504015524 | 69 | 319 | 2.0 | 4.0 | 0.00 | 0.00 | 0.00 | 20 | 1010.3 |
| 20260504015024 | 69 | 335 | 1.0 | 4.0 | 0.00 | 0.00 | 0.00 | 20 | 1010.2 |
| 20260504014534 | 70 | 316 | 2.0 | 4.0 | 0.00 | 0.00 | 0.00 | 20 | 1010.2 |
| 20260504014022 | 70 | 331 | 2.0 | 5.0 | 0.00 | 0.00 | 0.00 | 19 | 1010.3 |
| 20260504013523 | 70 | 319 | 3.0 | 6.0 | 0.00 | 0.00 | 0.00 | 19 | 1010.3 |
| 20260504013034 | 70 | 325 | 3.0 | 6.0 | 0.00 | 0.00 | 0.00 | 19 | 1010.4 |
| 20260504012523 | 70 | 324 | 3.0 | 6.0 | 0.00 | 0.00 | 0.00 | 19 | 1010.4 |
| 20260504012022 | 71 | 321 | 2.0 | 5.0 | 0.00 | 0.00 | 0.00 | 19 | 1010.4 |
| 20260504011522 | 71 | 342 | 2.0 | 6.0 | 0.00 | 0.00 | 0.00 | 19 | 1010.5 |
| 20260504011021 | 71 | 352 | 3.0 | 7.0 | 0.00 | 0.00 | 0.00 | 18 | 1010.5 |
| 20260504010521 | 71 | 329 | 2.0 | 7.0 | 0.00 | 0.00 | 0.00 | 18 | 1010.6 |
| 20260504010022 | 71 | 316 | 4.0 | 7.0 | 0.00 | 0.00 | 0.00 | 17 | 1010.6 |
| 20260504005518 | 71 | 321 | 3.0 | 9.0 | 0.00 | 0.00 | 0.00 | 17 | 1010.7 |
| 20260504005021 | 72 | 341 | 4.0 | 9.0 | 0.00 | 0.00 | 0.00 | 17 | 1010.7 |
| 20260504004517 | 72 | 321 | 2.0 | 6.0 | 0.00 | 0.00 | 0.00 | 17 | 1010.8 |
| 20260504004016 | 72 | 23 | 3.0 | 7.0 | 0.00 | 0.00 | 0.00 | 16 | 1010.8 |
| 20260504003515 | 72 | 8 | 3.0 | 7.0 | 0.00 | 0.00 | 0.00 | 15 | 1010.9 |
| 20260504003016 | 72 | 323 | 2.0 | 6.0 | 0.00 | 0.00 | 0.00 | 15 | 1010.9 |
| 20260504002517 | 72 | 6 | 2.0 | 6.0 | 0.00 | 0.00 | 0.00 | 15 | 1011.0 |
| 20260504002016 | 72 | 9 | 3.0 | 7.0 | 0.00 | 0.00 | 0.00 | 15 | 1011.0 |
| 20260504001514 | 72 | 18 | 3.0 | 13.0 | 0.00 | 0.00 | 0.00 | 15 | 1011.0 |
| 20260504001014 | 72 | 1 | 7.0 | 13.0 | 0.00 | 0.00 | 0.00 | 14 | 1011.0 |
| 20260504000513 | 73 | 10 | 5.0 | 10.0 | 0.00 | 0.00 | 0.00 | 15 | 1010.9 |
| 20260504000015 | 73 | 6 | 4.0 | 11.0 | 0.00 | 0.00 | 0.00 | 15 | 1011.0 |
| 20260503235512 | 73 | 347 | 6.0 | 12.0 | 0.00 | 0.00 | 0.00 | 14 | 1011.0 |
| 20260503235012 | 73 | 2 | 5.0 | 12.0 | 0.00 | 0.00 | 0.00 | 14 | 1011.0 |
| 20260503234512 | 73 | 347 | 3.0 | 10.0 | 0.00 | 0.00 | 0.00 | 15 | 1010.9 |
| 20260503234012 | 73 | 359 | 6.0 | 10.0 | 0.00 | 0.00 | 0.00 | 14 | 1010.9 |
| 20260503233511 | 73 | 329 | 3.0 | 11.0 | 0.00 | 0.00 | 0.00 | 14 | 1011.0 |
| 20260503233019 | 73 | 11 | 5.0 | 11.0 | 0.00 | 0.00 | 0.00 | 14 | 1011.0 |
| 20260503232510 | 74 | 321 | 4.0 | 8.0 | 0.00 | 0.00 | 0.00 | 14 | 1011.1 |
| 20260503232012 | 74 | 328 | 4.0 | 12.0 | 0.00 | 0.00 | 0.00 | 15 | 1011.2 |
| 20260503231510 | 74 | 318 | 4.0 | 7.0 | 0.00 | 0.00 | 0.00 | 14 | 1011.2 |
| 20260503231010 | 74 | 53 | 2.0 | 9.0 | 0.00 | 0.00 | 0.00 | 14 | 1011.1 |
| 20260503230514 | 74 | 288 | 2.0 | 9.0 | 0.00 | 0.00 | 0.00 | 14 | 1011.1 |
| 20260503230008 | 74 | 250 | 2.0 | 8.0 | 0.00 | 0.00 | 0.00 | 14 | 1011.2 |
| 20260503225507 | 75 | 256 | 2.0 | 6.0 | 0.00 | 0.00 | 0.00 | 13 | 1011.4 |
| 20260503225010 | 75 | 232 | 3.0 | 7.0 | 0.00 | 0.00 | 0.00 | 13 | 1011.4 |
| 20260503224506 | 75 | 162 | 3.0 | 7.0 | 0.00 | 0.00 | 0.00 | 13 | 1011.5 |
| 20260503224006 | 75 | 91 | 0.0 | 5.0 | 0.00 | 0.00 | 0.00 | 14 | 1011.5 |
| 20260503223505 | 75 | 147 | 0.0 | 4.0 | 0.00 | 0.00 | 0.00 | 13 | 1011.6 |
| 20260503223006 | 75 | 101 | 2.0 | 4.0 | 0.00 | 0.00 | 0.00 | 13 | 1011.6 |
| 20260503222504 | 75 | 133 | 1.0 | 11.0 | 0.00 | 0.00 | 0.00 | 13 | 1011.6 |
| 20260503222006 | 75 | 89 | 4.0 | 11.0 | 0.00 | 0.00 | 0.00 | 13 | 1011.7 |
| 20260503221503 | 74 | 86 | 0.0 | 8.0 | 0.00 | 0.00 | 0.00 | 13 | 1011.8 |
| 20260503221005 | 75 | 41 | 3.0 | 6.0 | 0.00 | 0.00 | 0.00 | 12 | 1011.8 |
| 20260503220503 | 75 | 42 | 3.0 | 7.0 | 0.00 | 0.00 | 0.00 | 12 | 1011.9 |
| 20260503220002 | 74 | 32 | 4.0 | 10.0 | 0.00 | 0.00 | 0.00 | 12 | 1012.1 |
| 20260503215600 | 75 | 125 | 5.0 | 10.0 | 0.00 | 0.00 | 0.00 | 13 | 1012.2 |
| 20260503215100 | 74 | 96 | 3.0 | 10.0 | 0.00 | 0.00 | 0.00 | 12 | 1012.3 |
| 20260503214602 | 75 | 61 | 5.0 | 10.0 | 0.00 | 0.00 | 0.00 | 12 | 1012.4 |
| 20260503214101 | 75 | 105 | 4.0 | 11.0 | 0.00 | 0.00 | 0.00 | 12 | 1012.5 |
| 20260503213559 | 76 | 59 | 3.0 | 11.0 | 0.00 | 0.00 | 0.00 | 12 | 1012.7 |
| 20260503213057 | 76 | 149 | 5.0 | 10.0 | 0.00 | 0.00 | 0.00 | 11 | 1012.7 |
| 20260503212556 | 75 | 49 | 0.0 | 6.0 | 0.00 | 0.00 | 0.00 | 13 | 1012.8 |
| 20260503212056 | 75 | 139 | 0.0 | 9.0 | 0.00 | 0.00 | 0.00 | 12 | 1012.9 |
| 20260503211555 | 75 | 131 | 4.0 | 12.0 | 0.00 | 0.00 | 0.00 | 12 | 1013.0 |
| 20260503211056 | 75 | 152 | 3.0 | 12.0 | 0.00 | 0.00 | 0.00 | 12 | 1013.1 |
| 20260503210553 | 75 | 106 | 4.0 | 13.0 | 0.00 | 0.00 | 0.00 | 10 | 1013.2 |